Location: Bilsen
(53.7722°N, 9.8765°E)
Time: 15:02:46
(UTC+00:00)

PAYLOAD B - Pass Details

Date: 18 February 2020
Orbit: 849 x 872 km, 99.1° (Epoch: 27 March)

Event Time Altitude Azimuth Distance (km) Brightness Sun altitude
Rises 05:16:13 0° 16° (NNE) 3,471 7.6 -12.2°
Reaches altitude 10° 05:18:36 10° 16° (NNE) 2,526 6.8 -11.8°
Maximum altitude 05:24:15 88° 288° (WNW) 874 4.3 -11.0°
Drops below altitude 10° 05:29:48 10° 200° (SSW) 2,494 6.5 -10.2°
Sets 05:32:09 0° 200° (SSW) 3,423 7.2 -9.8°
